Location: Katwijk
(52.2000°N, 4.4170°E)
Time: 19:05:19
(UTC+01:00)

ISS - Visible Passes

Search period start: 10 December 2025 00:00
Search period end: 20 December 2025 00:00
Orbit: 416 x 420 km, 51.6° (Epoch: 10 December)

Date Brightness Start Highest point End Pass type
(mag) Time Alt. Az. Time Alt. Az. Time Alt. Az.
12 Dec -0.8 08:01:51 10° SSW 08:04:30 21° SE 08:07:09 10° E visible
13 Dec -0.7 07:14:42 10° S 07:16:44 15° SE 07:18:47 10° ESE visible
14 Dec -0.3 06:28:26 10° SSE 06:29:00 10° SE 06:29:33 10° SE visible
14 Dec -2.2 08:01:54 10° SW 08:05:04 38° SSE 08:08:15 10° E visible
15 Dec -1.7 07:14:13 10° SSW 07:17:10 29° SSE 07:20:08 10° E visible
16 Dec -1.3 06:26:42 10° SSW 06:29:17 21° SE 06:31:54 10° E visible
17 Dec -1.0 05:41:16 15° SE 05:41:25 15° SE 05:43:24 10° ESE visible
17 Dec -2.9 07:14:21 10° SW 07:17:38 49° SSE 07:20:55 10° E visible
18 Dec -2.5 06:28:33 29° SSW 06:29:37 37° SSE 06:32:46 10° E visible
18 Dec -3.6 08:02:50 10° W 08:06:12 80° S 08:09:35 10° E visible
19 Dec -1.4 05:42:40 23° ESE 05:42:40 23° ESE 05:44:32 10° E visible
19 Dec -3.6 07:15:36 17° WSW 07:18:05 72° S 07:21:28 10° E visible
